| time (UTC) | temp F | wind direction | speed MPH | gust MPH | rain 1hr in | rain 24hr in | rain mn in | humidity % | barometer mb |
| 20260905042155 | 80 | 57 | 1.0 | 1.0 | 0.00 | 0.04 | 0.04 | 95 | 977.0 |
| 20260905041650 | 79 | 92 | 0.0 | 0.0 | 0.00 | 0.04 | 0.04 | 96 | 976.9 |
| 20260905041146 | 79 | 107 | 0.0 | 1.0 | 0.00 | 0.04 | 0.04 | 97 | 977.1 |
| 20260905040640 | 78 | 122 | 1.0 | 2.0 | 0.00 | 0.04 | 0.04 | 99 | 977.2 |
| 20260905040134 | 78 | 168 | 0.0 | 0.0 | 0.00 | 0.04 | 0.04 | 99 | 977.3 |
| 20260905035628 | 78 | 174 | 0.0 | 0.0 | 0.00 | 0.04 | 0.04 | 99 | 977.7 |
| 20260905035125 | 78 | 174 | 0.0 | 0.0 | 0.00 | 0.04 | 0.04 | 99 | 977.1 |
| 20260905034621 | 78 | 180 | 0.0 | 0.0 | 0.00 | 0.04 | 0.04 | 99 | 977.3 |
| 20260905034120 | 78 | 194 | 0.0 | 0.0 | 0.00 | 0.04 | 0.04 | 99 | 977.3 |
| 20260905033620 | 78 | 214 | 0.0 | 0.0 | 0.00 | 0.04 | 0.04 | 99 | 977.2 |
| 20260905033116 | 78 | 214 | 0.0 | 0.0 | 0.00 | 0.04 | 0.04 | 99 | 977.3 |
| 20260905032616 | 77 | 212 | 0.0 | 0.0 | 0.00 | 0.04 | 0.04 | 99 | 977.5 |
| 20260905032115 | 77 | 166 | 0.0 | 0.0 | 0.00 | 0.04 | 0.04 | 99 | 977.5 |
| 20260905031612 | 77 | 215 | 0.0 | 0.0 | 0.00 | 0.04 | 0.04 | 99 | 977.5 |
| 20260905031111 | 77 | 215 | 0.0 | 0.0 | 0.00 | 0.04 | 0.04 | 99 | 977.5 |
| 20260905030607 | 77 | 215 | 0.0 | 0.0 | 0.00 | 0.04 | 0.04 | 99 | 977.5 |
| 20260905025557 | 77 | 215 | 0.0 | 0.0 | 0.00 | 0.04 | 0.04 | 99 | 977.5 |
| 20260905025052 | 77 | 215 | 0.0 | 0.0 | 0.00 | 0.04 | 0.04 | 99 | 977.6 |
| 20260905024547 | 77 | 211 | 0.0 | 0.0 | 0.00 | 0.04 | 0.04 | 99 | 977.6 |
| 20260905024038 | 78 | 215 | 0.0 | 0.0 | 0.00 | 0.04 | 0.04 | 99 | 977.5 |
| 20260905023533 | 77 | 216 | 0.0 | 0.0 | 0.00 | 0.04 | 0.04 | 99 | 977.8 |
| 20260905023032 | 77 | 216 | 0.0 | 0.0 | 0.00 | 0.04 | 0.04 | 99 | 977.6 |
| 20260905022527 | 77 | 216 | 0.0 | 0.0 | 0.00 | 0.04 | 0.04 | 99 | 977.6 |
| 20260905022022 | 77 | 210 | 0.0 | 0.0 | 0.00 | 0.04 | 0.04 | 99 | 977.5 |
| 20260905021521 | 76 | 203 | 0.0 | 0.0 | 0.00 | 0.04 | 0.04 | 99 | 977.7 |
| 20260905021017 | 76 | 203 | 0.0 | 0.0 | 0.00 | 0.04 | 0.04 | 99 | 977.6 |
| 20260905020516 | 0 | 0.0 | 0.0 | 0.00 | 0.00 | 0.00 | 977.5 | ||
| 20260905020012 | 74 | 207 | 0.0 | 0.0 | 0.00 | 0.04 | 0.04 | 99 | 977.7 |
| 20260905015510 | 74 | 207 | 0.0 | 0.0 | 0.00 | 0.04 | 0.04 | 99 | 977.7 |
| 20260905015010 | 74 | 207 | 0.0 | 0.0 | 0.00 | 0.04 | 0.04 | 99 | 977.6 |
| 20260905014504 | 74 | 207 | 0.0 | 0.0 | 0.00 | 0.04 | 0.04 | 99 | 977.8 |
| 20260905014000 | 74 | 207 | 0.0 | 0.0 | 0.00 | 0.04 | 0.04 | 99 | 977.7 |
| 20260905013456 | 74 | 207 | 0.0 | 0.0 | 0.00 | 0.04 | 0.04 | 99 | 977.5 |
| 20260905012951 | 74 | 207 | 0.0 | 0.0 | 0.00 | 0.04 | 0.04 | 99 | 977.5 |
| 20260905012446 | 74 | 207 | 0.0 | 0.0 | 0.00 | 0.04 | 0.04 | 99 | 977.5 |
| 20260905011943 | 74 | 207 | 0.0 | 0.0 | 0.00 | 0.04 | 0.04 | 99 | 977.5 |
| 20260905011438 | 74 | 207 | 0.0 | 0.0 | 0.00 | 0.04 | 0.04 | 99 | 977.1 |
| 20260905010934 | 74 | 207 | 0.0 | 0.0 | 0.00 | 0.04 | 0.04 | 99 | 977.3 |
| 20260905010429 | 74 | 207 | 0.0 | 0.0 | 0.00 | 0.04 | 0.04 | 99 | 977.3 |
| 20260905005924 | 74 | 208 | 0.0 | 0.0 | 0.00 | 0.04 | 0.04 | 99 | 977.2 |
| 20260905005421 | 74 | 208 | 0.0 | 0.0 | 0.00 | 0.04 | 0.04 | 99 | 977.2 |
| 20260905004920 | 74 | 208 | 0.0 | 0.0 | 0.00 | 0.04 | 0.04 | 99 | 977.1 |
| 20260905004415 | 74 | 195 | 0.0 | 0.0 | 0.00 | 0.04 | 0.04 | 99 | 977.1 |
| 20260905003910 | 73 | 197 | 0.0 | 0.0 | 0.00 | 0.04 | 0.04 | 99 | 977.1 |
| 20260905003406 | 73 | 197 | 0.0 | 0.0 | 0.00 | 0.04 | 0.04 | 99 | 976.9 |
| 20260905002902 | 73 | 197 | 0.0 | 0.0 | 0.00 | 0.04 | 0.04 | 99 | 977.1 |
| 20260905002356 | 73 | 197 | 0.0 | 0.0 | 0.00 | 0.04 | 0.04 | 99 | 977.0 |
| 20260905001850 | 73 | 198 | 0.0 | 0.0 | 0.00 | 0.04 | 0.04 | 99 | 977.1 |
| 20260905001345 | 73 | 198 | 0.0 | 0.0 | 0.00 | 0.04 | 0.04 | 99 | 976.9 |
| 20260905000840 | 73 | 208 | 0.0 | 0.0 | 0.00 | 0.04 | 0.04 | 99 | 976.8 |
| 20260905000335 | 73 | 208 | 0.0 | 0.0 | 0.00 | 0.04 | 0.04 | 99 | 976.9 |
| 20260904235831 | 73 | 208 | 0.0 | 0.0 | 0.00 | 0.04 | 0.04 | 99 | 976.8 |
| 20260904235326 | 73 | 208 | 0.0 | 0.0 | 0.00 | 0.04 | 0.04 | 99 | 976.6 |
| 20260904234820 | 73 | 208 | 0.0 | 0.0 | 0.00 | 0.04 | 0.04 | 99 | 976.7 |
| 20260904234315 | 73 | 208 | 0.0 | 0.0 | 0.00 | 0.04 | 0.04 | 99 | 976.7 |
| 20260904233811 | 73 | 208 | 0.0 | 0.0 | 0.00 | 0.04 | 0.04 | 99 | 976.8 |
| 20260904233307 | 73 | 207 | 0.0 | 0.0 | 0.00 | 0.04 | 0.04 | 99 | 976.4 |
| 20260904232803 | 73 | 207 | 0.0 | 0.0 | 0.00 | 0.04 | 0.04 | 99 | 976.4 |
| 20260904232259 | 73 | 205 | 0.0 | 0.0 | 0.00 | 0.04 | 0.04 | 99 | 976.2 |
| 20260904231755 | 73 | 205 | 0.0 | 0.0 | 0.00 | 0.04 | 0.04 | 99 | 976.5 |
| 20260904231250 | 73 | 205 | 0.0 | 0.0 | 0.00 | 0.00 | 0.00 | 99 | 976.3 |
| 20260904230745 | 73 | 205 | 0.0 | 0.0 | 0.00 | 0.00 | 0.00 | 99 | 976.4 |
| 20260904230238 | 73 | 218 | 0.0 | 0.0 | 0.00 | 0.00 | 0.00 | 99 | 976.4 |
| 20260904225738 | 73 | 218 | 0.0 | 0.0 | 0.00 | 0.00 | 0.00 | 99 | 976.2 |
| 20260904225232 | 73 | 208 | 0.0 | 0.0 | 0.00 | 0.00 | 0.00 | 99 | 976.2 |
| 20260904224731 | 73 | 178 | 0.0 | 0.0 | 0.00 | 0.00 | 0.00 | 99 | 976.1 |
| 20260904224227 | 73 | 224 | 0.0 | 0.0 | 0.00 | 0.00 | 0.00 | 99 | 976.0 |
| 20260904223726 | 73 | 236 | 0.0 | 0.0 | 0.00 | 0.00 | 0.00 | 99 | 976.1 |
| 20260904223221 | 73 | 219 | 0.0 | 0.0 | 0.00 | 0.00 | 0.00 | 99 | 975.9 |
| 20260904222717 | 73 | 232 | 0.0 | 0.0 | 0.00 | 0.00 | 0.00 | 99 | 975.7 |
| 20260904222213 | 73 | 210 | 0.0 | 0.0 | 0.00 | 0.00 | 0.00 | 99 | 975.9 |
| 20260904221712 | 73 | 223 | 0.0 | 0.0 | 0.00 | 0.00 | 0.00 | 99 | 975.6 |
| 20260904221207 | 73 | 234 | 0.0 | 0.0 | 0.00 | 0.00 | 0.00 | 99 | 975.9 |
| 20260904220702 | 73 | 233 | 0.0 | 0.0 | 0.00 | 0.00 | 0.00 | 99 | 975.7 |
| 20260904220157 | 73 | 231 | 0.0 | 0.0 | 0.00 | 0.00 | 0.00 | 99 | 975.8 |
| 20260904215656 | 73 | 202 | 0.0 | 0.0 | 0.00 | 0.00 | 0.00 | 99 | 975.7 |
| 20260904215152 | 73 | 219 | 0.0 | 0.0 | 0.00 | 0.00 | 0.00 | 99 | 975.6 |
| 20260904214647 | 73 | 216 | 0.0 | 0.0 | 0.00 | 0.00 | 0.00 | 99 | 975.7 |
| 20260904214143 | 73 | 212 | 0.0 | 0.0 | 0.00 | 0.00 | 0.00 | 99 | 975.5 |
| 20260904213641 | 73 | 212 | 0.0 | 0.0 | 0.00 | 0.00 | 0.00 | 99 | 975.8 |
| 20260904213138 | 73 | 212 | 0.0 | 0.0 | 0.00 | 0.00 | 0.00 | 99 | 975.4 |
| 20260904212637 | 73 | 212 | 0.0 | 0.0 | 0.00 | 0.00 | 0.00 | 99 | 975.4 |
| 20260904212133 | 73 | 212 | 0.0 | 0.0 | 0.00 | 0.00 | 0.00 | 99 | 975.4 |
| 20260904211632 | 73 | 212 | 0.0 | 0.0 | 0.00 | 0.00 | 0.00 | 99 | 975.6 |
| 20260904211128 | 73 | 212 | 0.0 | 0.0 | 0.00 | 0.00 | 0.00 | 99 | 975.3 |
| 20260904210627 | 73 | 212 | 0.0 | 0.0 | 0.00 | 0.00 | 0.00 | 99 | 975.3 |
| 20260904210123 | 73 | 212 | 0.0 | 0.0 | 0.00 | 0.00 | 0.00 | 99 | 975.3 |
| 20260904205619 | 73 | 212 | 0.0 | 0.0 | 0.00 | 0.00 | 0.00 | 99 | 975.4 |
| 20260904205115 | 73 | 212 | 0.0 | 0.0 | 0.00 | 0.00 | 0.00 | 99 | 975.4 |
| 20260904204610 | 72 | 212 | 0.0 | 0.0 | 0.00 | 0.00 | 0.00 | 99 | 975.3 |
| 20260904204106 | 72 | 211 | 0.0 | 0.0 | 0.00 | 0.00 | 0.00 | 99 | 975.1 |
| 20260904203602 | 72 | 211 | 0.0 | 0.0 | 0.00 | 0.00 | 0.00 | 99 | 975.1 |
| 20260904203059 | 72 | 211 | 0.0 | 0.0 | 0.00 | 0.00 | 0.00 | 99 | 975.2 |
| 20260904202554 | 72 | 211 | 0.0 | 0.0 | 0.00 | 0.00 | 0.00 | 99 | 975.3 |
| 20260904202051 | 72 | 211 | 0.0 | 0.0 | 0.00 | 0.00 | 0.00 | 99 | 975.2 |
| 20260904201550 | 72 | 211 | 0.0 | 0.0 | 0.00 | 0.00 | 0.00 | 99 | 975.1 |
| 20260904201046 | 72 | 211 | 0.0 | 0.0 | 0.00 | 0.00 | 0.00 | 99 | 975.3 |
| 20260904200544 | 72 | 211 | 0.0 | 0.0 | 0.00 | 0.00 | 0.00 | 99 | 975.2 |
| 20260904200039 | 72 | 211 | 0.0 | 0.0 | 0.00 | 0.00 | 0.00 | 99 | 975.2 |
| 20260904195537 | 72 | 211 | 0.0 | 0.0 | 0.00 | 0.00 | 0.00 | 99 | 975.4 |
| 20260904195032 | 72 | 211 | 0.0 | 0.0 | 0.00 | 0.00 | 0.00 | 99 | 975.0 |
| 20260904194527 | 72 | 211 | 0.0 | 0.0 | 0.00 | 0.00 | 0.00 | 99 | 975.2 |
| 20260904194021 | 72 | 211 | 0.0 | 0.0 | 0.00 | 0.00 | 0.00 | 99 | 975.1 |
| 20260904193516 | 72 | 214 | 0.0 | 0.0 | 0.00 | 0.00 | 0.00 | 99 | 975.1 |
| 20260904193013 | 72 | 211 | 0.0 | 0.0 | 0.00 | 0.00 | 0.00 | 99 | 975.1 |
| 20260904192512 | 72 | 214 | 0.0 | 0.0 | 0.00 | 0.00 | 0.00 | 99 | 975.1 |
| 20260904192008 | 72 | 201 | 0.0 | 0.0 | 0.00 | 0.00 | 0.00 | 99 | 975.2 |
| 20260904191504 | 72 | 228 | 0.0 | 0.0 | 0.00 | 0.00 | 0.00 | 99 | 975.1 |
| 20260904191001 | 72 | 231 | 0.0 | 0.0 | 0.00 | 0.00 | 0.00 | 99 | 975.4 |
| 20260904190456 | 72 | 231 | 0.0 | 0.0 | 0.00 | 0.00 | 0.00 | 99 | 975.4 |
| 20260904185952 | 72 | 235 | 0.0 | 0.0 | 0.00 | 0.00 | 0.00 | 99 | 975.1 |
| 20260904185448 | 72 | 233 | 0.0 | 0.0 | 0.00 | 0.00 | 0.00 | 99 | 975.2 |
| 20260904184943 | 71 | 222 | 0.0 | 0.0 | 0.00 | 0.00 | 0.00 | 99 | 975.3 |
| 20260904184437 | 71 | 219 | 0.0 | 0.0 | 0.00 | 0.00 | 0.00 | 99 | 975.4 |
| 20260904183932 | 72 | 219 | 0.0 | 0.0 | 0.00 | 0.00 | 0.00 | 99 | 975.2 |
| 20260904183427 | 72 | 219 | 0.0 | 0.0 | 0.00 | 0.00 | 0.00 | 99 | 975.4 |
| 20260904182923 | 72 | 228 | 0.0 | 0.0 | 0.00 | 0.00 | 0.00 | 99 | 975.3 |
| 20260904182418 | 71 | 228 | 0.0 | 0.0 | 0.00 | 0.00 | 0.00 | 99 | 975.4 |
| 20260904181913 | 72 | 221 | 0.0 | 0.0 | 0.00 | 0.00 | 0.00 | 99 | 975.3 |
| 20260904181408 | 72 | 228 | 0.0 | 0.0 | 0.00 | 0.00 | 0.00 | 99 | 975.6 |
| 20260904180903 | 72 | 228 | 0.0 | 0.0 | 0.00 | 0.00 | 0.00 | 99 | 975.3 |
| 20260904180358 | 72 | 228 | 0.0 | 0.0 | 0.00 | 0.00 | 0.00 | 99 | 975.5 |
| 20260904175857 | 72 | 228 | 0.0 | 0.0 | 0.00 | 0.00 | 0.00 | 99 | 975.6 |
| 20260904175356 | 71 | 228 | 0.0 | 0.0 | 0.00 | 0.00 | 0.00 | 99 | 975.5 |
| 20260904174850 | 71 | 228 | 0.0 | 0.0 | 0.00 | 0.00 | 0.00 | 99 | 975.7 |
| 20260904174346 | 71 | 228 | 0.0 | 0.0 | 0.00 | 0.00 | 0.00 | 99 | 975.8 |
| 20260904173843 | 71 | 228 | 0.0 | 0.0 | 0.00 | 0.00 | 0.00 | 99 | 975.7 |
| 20260904173338 | 71 | 228 | 0.0 | 0.0 | 0.00 | 0.00 | 0.00 | 99 | 975.9 |
| 20260904172833 | 71 | 228 | 0.0 | 0.0 | 0.00 | 0.00 | 0.00 | 99 | 976.2 |
| 20260904172333 | 72 | 228 | 0.0 | 0.0 | 0.00 | 0.00 | 0.00 | 99 | 976.2 |
| 20260904171828 | 72 | 228 | 0.0 | 0.0 | 0.00 | 0.00 | 0.00 | 99 | 976.1 |
| 20260904171323 | 71 | 228 | 0.0 | 0.0 | 0.00 | 0.00 | 0.00 | 99 | 975.9 |
| 20260904170819 | 71 | 228 | 0.0 | 0.0 | 0.00 | 0.00 | 0.00 | 99 | 976.3 |
| 20260904170315 | 71 | 228 | 0.0 | 0.0 | 0.00 | 0.00 | 0.00 | 99 | 976.3 |
| 20260904165814 | 72 | 228 | 0.0 | 0.0 | 0.00 | 0.59 | 0.59 | 99 | 976.2 |
| 20260904165308 | 72 | 228 | 0.0 | 0.0 | 0.00 | 0.59 | 0.59 | 99 | 976.6 |
| 20260904164803 | 71 | 228 | 0.0 | 0.0 | 0.00 | 0.59 | 0.59 | 99 | 976.7 |
| 20260904164258 | 71 | 224 | 0.0 | 0.0 | 0.00 | 0.59 | 0.59 | 99 | 976.7 |
| 20260904163754 | 72 | 224 | 0.0 | 0.0 | 0.00 | 0.59 | 0.59 | 99 | 976.7 |
| 20260904163249 | 72 | 223 | 0.0 | 0.0 | 0.00 | 0.59 | 0.59 | 99 | 976.6 |
| 20260904162748 | 72 | 223 | 0.0 | 0.0 | 0.00 | 0.59 | 0.59 | 99 | 976.7 |
| 20260904162243 | 72 | 223 | 0.0 | 0.0 | 0.00 | 0.59 | 0.59 | 99 | 976.9 |
| 20260904161739 | 72 | 223 | 0.0 | 0.0 | 0.00 | 0.59 | 0.59 | 99 | 977.0 |
| 20260904161238 | 72 | 224 | 0.0 | 0.0 | 0.00 | 0.59 | 0.59 | 99 | 976.9 |
| 20260904160734 | 72 | 224 | 0.0 | 0.0 | 0.00 | 0.59 | 0.59 | 99 | 977.0 |
| 20260904160230 | 72 | 224 | 0.0 | 0.0 | 0.00 | 0.59 | 0.59 | 99 | 977.2 |
| 20260904155729 | 72 | 224 | 0.0 | 0.0 | 0.00 | 0.59 | 0.59 | 99 | 977.3 |
| 20260904155229 | 72 | 224 | 0.0 | 0.0 | 0.00 | 0.59 | 0.59 | 99 | 977.3 |
| 20260904154727 | 72 | 223 | 0.0 | 0.0 | 0.00 | 0.59 | 0.59 | 99 | 977.1 |
| 20260904154222 | 72 | 224 | 0.0 | 0.0 | 0.00 | 0.59 | 0.59 | 99 | 976.9 |
| 20260904153717 | 72 | 224 | 0.0 | 0.0 | 0.00 | 0.59 | 0.59 | 99 | 977.1 |
| 20260904153213 | 72 | 223 | 0.0 | 0.0 | 0.00 | 0.59 | 0.59 | 99 | 977.0 |
| 20260904152709 | 72 | 222 | 0.0 | 0.0 | 0.00 | 0.59 | 0.59 | 99 | 977.0 |
| 20260904152204 | 72 | 221 | 0.0 | 0.0 | 0.00 | 0.59 | 0.59 | 99 | 976.8 |
| 20260904151659 | 72 | 221 | 0.0 | 0.0 | 0.00 | 0.59 | 0.59 | 99 | 977.0 |
| 20260904151158 | 72 | 221 | 0.0 | 0.0 | 0.00 | 0.59 | 0.59 | 99 | 977.0 |
| 20260904150654 | 72 | 221 | 0.0 | 0.0 | 0.00 | 0.59 | 0.59 | 99 | 977.0 |
| 20260904150149 | 72 | 221 | 0.0 | 0.0 | 0.00 | 0.59 | 0.59 | 99 | 976.8 |
| 20260904145648 | 72 | 221 | 0.0 | 0.0 | 0.00 | 0.32 | 0.32 | 99 | 976.8 |
| 20260904145143 | 72 | 221 | 0.0 | 0.0 | 0.00 | 0.32 | 0.32 | 99 | 976.6 |
| 20260904144638 | 72 | 221 | 0.0 | 0.0 | 0.00 | 0.32 | 0.32 | 99 | 976.5 |
| 20260904144134 | 72 | 221 | 0.0 | 0.0 | 0.00 | 0.32 | 0.32 | 99 | 976.7 |
| 20260904143630 | 72 | 221 | 0.0 | 0.0 | 0.00 | 0.32 | 0.32 | 99 | 976.7 |
| 20260904143126 | 72 | 221 | 0.0 | 0.0 | 0.00 | 0.32 | 0.32 | 99 | 976.6 |
| 20260904142623 | 72 | 222 | 0.0 | 0.0 | 0.00 | 0.32 | 0.32 | 99 | 976.8 |
| 20260904142118 | 72 | 222 | 0.0 | 0.0 | 0.00 | 0.32 | 0.32 | 99 | 976.4 |
| 20260904141613 | 72 | 221 | 0.0 | 0.0 | 0.00 | 0.32 | 0.32 | 99 | 976.4 |
| 20260904141108 | 72 | 221 | 0.0 | 0.0 | 0.00 | 0.32 | 0.32 | 99 | 976.4 |
| 20260904140603 | 72 | 233 | 0.0 | 0.0 | 0.00 | 0.32 | 0.32 | 99 | 976.4 |
| 20260904140058 | 72 | 233 | 0.0 | 0.0 | 0.00 | 0.32 | 0.32 | 99 | 976.4 |
| 20260904135557 | 72 | 233 | 0.0 | 0.0 | 0.00 | 0.32 | 0.32 | 99 | 976.3 |
| 20260904135053 | 72 | 233 | 0.0 | 0.0 | 0.00 | 0.32 | 0.32 | 99 | 976.4 |
| 20260904134548 | 72 | 233 | 0.0 | 0.0 | 0.00 | 0.32 | 0.32 | 99 | 976.2 |
| 20260904134037 | 72 | 233 | 0.0 | 0.0 | 0.00 | 0.32 | 0.32 | 99 | 976.0 |
| 20260904133531 | 73 | 233 | 0.0 | 0.0 | 0.00 | 0.32 | 0.32 | 99 | 976.0 |
| 20260904133027 | 73 | 233 | 0.0 | 0.0 | 0.00 | 0.32 | 0.32 | 99 | 975.9 |
| 20260904132522 | 73 | 233 | 0.0 | 0.0 | 0.00 | 0.32 | 0.32 | 99 | 975.9 |
| 20260904132021 | 72 | 233 | 0.0 | 0.0 | 0.00 | 0.32 | 0.32 | 99 | 975.7 |
| 20260904131516 | 72 | 233 | 0.0 | 0.0 | 0.00 | 0.32 | 0.32 | 99 | 976.0 |
| 20260904131012 | 72 | 233 | 0.0 | 0.0 | 0.00 | 0.32 | 0.32 | 99 | 975.9 |
| 20260904130511 | 73 | 233 | 0.0 | 0.0 | 0.00 | 0.32 | 0.32 | 99 | 975.8 |
| 20260904130006 | 73 | 236 | 0.0 | 0.0 | 0.00 | 0.32 | 0.32 | 99 | 975.8 |
| 20260904125502 | 73 | 231 | 0.0 | 0.0 | 0.00 | 0.32 | 0.32 | 99 | 975.9 |
| 20260904124956 | 73 | 215 | 0.0 | 0.0 | 0.00 | 0.32 | 0.32 | 99 | 976.0 |
| 20260904124452 | 73 | 230 | 0.0 | 0.0 | 0.00 | 0.32 | 0.32 | 99 | 975.9 |
| 20260904123948 | 73 | 232 | 0.0 | 0.0 | 0.00 | 0.32 | 0.32 | 99 | 975.9 |
| 20260904123442 | 73 | 236 | 0.0 | 0.0 | 0.00 | 0.32 | 0.32 | 99 | 975.6 |
| 20260904122938 | 73 | 231 | 0.0 | 0.0 | 0.00 | 0.32 | 0.32 | 99 | 975.8 |
| 20260904122437 | 73 | 232 | 0.0 | 0.0 | 0.00 | 0.32 | 0.32 | 99 | 975.8 |
| 20260904121932 | 73 | 229 | 0.0 | 0.0 | 0.00 | 0.32 | 0.32 | 99 | 975.9 |
| 20260904121428 | 73 | 246 | 0.0 | 0.0 | 0.00 | 0.32 | 0.32 | 99 | 976.3 |
| 20260904120925 | 74 | 341 | 0.0 | 0.0 | 0.00 | 0.32 | 0.32 | 99 | 976.3 |
| 20260904120420 | 74 | 343 | 0.0 | 0.0 | 0.00 | 0.32 | 0.32 | 99 | 976.4 |
| 20260904115915 | 75 | 343 | 0.0 | 0.0 | 0.00 | 0.32 | 0.32 | 99 | 975.9 |
| 20260904115410 | 75 | 213 | 0.0 | 0.0 | 0.00 | 0.32 | 0.32 | 99 | 975.5 |
| 20260904114905 | 75 | 213 | 0.0 | 0.0 | 0.00 | 0.32 | 0.32 | 99 | 974.9 |
| 20260904114404 | 75 | 175 | 0.0 | 0.0 | 0.00 | 0.32 | 0.32 | 99 | 974.6 |
| 20260904113900 | 76 | 212 | 0.0 | 0.0 | 0.00 | 0.32 | 0.32 | 99 | 974.6 |
| 20260904113400 | 76 | 212 | 0.0 | 0.0 | 0.00 | 0.32 | 0.32 | 99 | 974.7 |
| 20260904112854 | 76 | 211 | 0.0 | 0.0 | 0.00 | 0.32 | 0.32 | 99 | 975.1 |
| 20260904112350 | 76 | 208 | 0.0 | 0.0 | 0.00 | 0.32 | 0.32 | 99 | 974.8 |
| 20260904111846 | 76 | 182 | 0.0 | 0.0 | 0.00 | 0.32 | 0.32 | 99 | 974.6 |
| 20260904111341 | 78 | 208 | 0.0 | 0.0 | 0.00 | 0.32 | 0.32 | 99 | 974.6 |
| 20260904110837 | 77 | 171 | 0.0 | 0.0 | 0.00 | 0.32 | 0.32 | 99 | 974.2 |
| 20260904110335 | 77 | 186 | 0.0 | 0.0 | 0.00 | 0.32 | 0.32 | 99 | 974.2 |
| 20260904105830 | 78 | 187 | 0.0 | 0.0 | 0.00 | 0.00 | 0.00 | 99 | 974.0 |
| 20260904105325 | 78 | 187 | 0.0 | 0.0 | 0.00 | 0.00 | 0.00 | 99 | 973.9 |
| 20260904104820 | 78 | 186 | 0.0 | 0.0 | 0.00 | 0.00 | 0.00 | 99 | 973.8 |
| 20260904104315 | 77 | 172 | 0.0 | 0.0 | 0.00 | 0.00 | 0.00 | 99 | 973.8 |
| 20260904103812 | 77 | 170 | 0.0 | 0.0 | 0.00 | 0.00 | 0.00 | 99 | 973.6 |
| 20260904103312 | 78 | 164 | 0.0 | 0.0 | 0.00 | 0.00 | 0.00 | 99 | 973.6 |
| 20260904102808 | 78 | 175 | 0.0 | 0.0 | 0.00 | 0.00 | 0.00 | 99 | 973.8 |
| 20260904102306 | 78 | 170 | 0.0 | 0.0 | 0.00 | 0.00 | 0.00 | 99 | 973.5 |
| 20260904101759 | 78 | 175 | 0.0 | 0.0 | 0.00 | 0.00 | 0.00 | 99 | 973.3 |
| 20260904101255 | 78 | 175 | 0.0 | 0.0 | 0.00 | 0.00 | 0.00 | 99 | 973.2 |
| 20260904100751 | 78 | 170 | 0.0 | 0.0 | 0.00 | 0.00 | 0.00 | 99 | 973.4 |
| 20260904100247 | 78 | 153 | 0.0 | 0.0 | 0.00 | 0.00 | 0.00 | 99 | 973.3 |
| 20260904095746 | 78 | 210 | 0.0 | 0.0 | 0.00 | 0.00 | 0.00 | 99 | 973.2 |
| 20260904095241 | 78 | 210 | 0.0 | 0.0 | 0.00 | 0.00 | 0.00 | 99 | 972.9 |
| 20260904094736 | 78 | 210 | 0.0 | 0.0 | 0.00 | 0.00 | 0.00 | 99 | 973.0 |
| 20260904094231 | 78 | 210 | 0.0 | 0.0 | 0.00 | 0.00 | 0.00 | 99 | 973.1 |
| 20260904093727 | 78 | 186 | 0.0 | 0.0 | 0.00 | 0.00 | 0.00 | 99 | 973.1 |
| 20260904093226 | 78 | 185 | 0.0 | 0.0 | 0.00 | 0.00 | 0.00 | 99 | 973.2 |
| 20260904092717 | 78 | 184 | 0.0 | 0.0 | 0.00 | 0.00 | 0.00 | 99 | 972.8 |
| 20260904092213 | 78 | 201 | 0.0 | 0.0 | 0.00 | 0.00 | 0.00 | 99 | 972.6 |
| 20260904091709 | 78 | 195 | 0.0 | 0.0 | 0.00 | 0.00 | 0.00 | 99 | 972.8 |
| 20260904091203 | 78 | 180 | 0.0 | 0.0 | 0.00 | 0.00 | 0.00 | 99 | 972.7 |
| 20260904090659 | 77 | 204 | 0.0 | 0.0 | 0.00 | 0.00 | 0.00 | 99 | 972.7 |
| 20260904090154 | 77 | 189 | 0.0 | 0.0 | 0.00 | 0.00 | 0.00 | 99 | 972.7 |
| 20260904085650 | 77 | 189 | 0.0 | 0.0 | 0.00 | 0.00 | 0.00 | 99 | 972.8 |
| 20260904085149 | 77 | 180 | 0.0 | 0.0 | 0.00 | 0.00 | 0.00 | 99 | 972.9 |
| 20260904084639 | 77 | 189 | 0.0 | 0.0 | 0.00 | 0.00 | 0.00 | 99 | 973.0 |
| 20260904084136 | 78 | 211 | 0.0 | 0.0 | 0.00 | 0.00 | 0.00 | 99 | 973.0 |
| 20260904083632 | 78 | 212 | 0.0 | 0.0 | 0.00 | 0.00 | 0.00 | 99 | 973.1 |
| 20260904083127 | 77 | 212 | 0.0 | 0.0 | 0.00 | 0.00 | 0.00 | 99 | 973.2 |
| 20260904082622 | 77 | 211 | 0.0 | 0.0 | 0.00 | 0.00 | 0.00 | 99 | 973.1 |
| 20260904082118 | 77 | 202 | 0.0 | 0.0 | 0.00 | 0.00 | 0.00 | 99 | 973.4 |
| 20260904081613 | 76 | 205 | 0.0 | 0.0 | 0.00 | 0.00 | 0.00 | 99 | 973.4 |
| 20260904081108 | 76 | 212 | 0.0 | 0.0 | 0.00 | 0.00 | 0.00 | 99 | 973.4 |
| 20260904080604 | 75 | 212 | 0.0 | 0.0 | 0.00 | 0.00 | 0.00 | 99 | 973.6 |
| 20260904080100 | 75 | 201 | 0.0 | 0.0 | 0.00 | 0.00 | 0.00 | 99 | 973.6 |
| 20260904075555 | 75 | 186 | 0.0 | 0.0 | 0.00 | 0.00 | 0.00 | 99 | 973.7 |
| 20260904075050 | 75 | 159 | 0.0 | 0.0 | 0.00 | 0.00 | 0.00 | 99 | 973.4 |
| 20260904074549 | 75 | 214 | 0.0 | 0.0 | 0.00 | 0.00 | 0.00 | 99 | 973.5 |
| 20260904074044 | 74 | 214 | 0.0 | 0.0 | 0.00 | 0.00 | 0.00 | 99 | 973.6 |
| 20260904073539 | 75 | 214 | 0.0 | 0.0 | 0.00 | 0.00 | 0.00 | 99 | 973.6 |
| 20260904073035 | 74 | 214 | 0.0 | 0.0 | 0.00 | 0.00 | 0.00 | 99 | 973.7 |
| 20260904072531 | 75 | 219 | 0.0 | 0.0 | 0.00 | 0.00 | 0.00 | 99 | 973.6 |
| 20260904072026 | 74 | 214 | 0.0 | 0.0 | 0.00 | 0.00 | 0.00 | 99 | 973.6 |
| 20260904071522 | 74 | 216 | 0.0 | 0.0 | 0.00 | 0.00 | 0.00 | 99 | 974.0 |
| 20260904071016 | 74 | 219 | 0.0 | 0.0 | 0.00 | 0.00 | 0.00 | 99 | 974.3 |
| 20260904070515 | 74 | 216 | 0.0 | 0.0 | 0.00 | 0.00 | 0.00 | 99 | 974.2 |
| 20260904070010 | 74 | 219 | 0.0 | 0.0 | 0.00 | 0.00 | 0.00 | 99 | 974.4 |
| 20260904065505 | 74 | 214 | 0.0 | 0.0 | 0.00 | 0.00 | 0.00 | 99 | 974.5 |
| 20260904065001 | 75 | 214 | 0.0 | 0.0 | 0.00 | 0.00 | 0.00 | 99 | 974.4 |
| 20260904064456 | 74 | 218 | 0.0 | 0.0 | 0.00 | 0.00 | 0.00 | 99 | 974.7 |
| 20260904063951 | 74 | 215 | 0.0 | 0.0 | 0.00 | 0.00 | 0.00 | 99 | 974.8 |
| 20260904063448 | 75 | 206 | 0.0 | 0.0 | 0.00 | 0.00 | 0.00 | 99 | 974.5 |
| 20260904062943 | 76 | 185 | 0.0 | 0.0 | 0.00 | 0.00 | 0.00 | 99 | 974.7 |
| 20260904062439 | 76 | 154 | 0.0 | 0.0 | 0.00 | 0.00 | 0.00 | 99 | 974.4 |
| 20260904061934 | 76 | 153 | 0.0 | 1.0 | 0.00 | 0.00 | 0.00 | 99 | 974.1 |
| 20260904061431 | 76 | 60 | 1.0 | 2.0 | 0.00 | 0.00 | 0.00 | 99 | 974.3 |
| 20260904060926 | 77 | 67 | 2.0 | 3.0 | 0.00 | 0.00 | 0.00 | 99 | 974.3 |
| 20260904060422 | 77 | 74 | 1.0 | 2.0 | 0.00 | 0.00 | 0.00 | 99 | 974.5 |
| 20260904055917 | 78 | 61 | 2.0 | 2.0 | 0.00 | 0.00 | 0.00 | 99 | 974.7 |
| 20260904055413 | 79 | 174 | 0.0 | 0.0 | 0.00 | 0.00 | 0.00 | 99 | 974.7 |
| 20260904054909 | 79 | 173 | 0.0 | 0.0 | 0.00 | 0.00 | 0.00 | 99 | 974.8 |
| 20260904054404 | 80 | 173 | 0.0 | 0.0 | 0.00 | 0.00 | 0.00 | 99 | 974.7 |
| 20260904053900 | 80 | 173 | 0.0 | 0.0 | 0.00 | 0.00 | 0.00 | 99 | 974.6 |
| 20260904053358 | 79 | 169 | 0.0 | 0.0 | 0.00 | 0.00 | 0.00 | 99 | 974.7 |
| 20260904052855 | 79 | 169 | 0.0 | 0.0 | 0.00 | 0.00 | 0.00 | 99 | 974.7 |
| 20260904052351 | 79 | 171 | 0.0 | 0.0 | 0.00 | 0.00 | 0.00 | 99 | 975.3 |
| 20260904051847 | 80 | 164 | 0.0 | 0.0 | 0.00 | 0.00 | 0.00 | 99 | 974.9 |
| 20260904051343 | 80 | 173 | 0.0 | 0.0 | 0.00 | 0.00 | 0.00 | 99 | 974.9 |
| 20260904050837 | 79 | 173 | 0.0 | 0.0 | 0.00 | 0.00 | 0.00 | 99 | 975.0 |
| 20260904050334 | 79 | 173 | 0.0 | 0.0 | 0.00 | 0.00 | 0.00 | 99 | 975.2 |
| 20260904045833 | 80 | 173 | 0.0 | 0.0 | 0.00 | 0.00 | 0.00 | 99 | 975.2 |
| 20260904045328 | 80 | 173 | 0.0 | 0.0 | 0.00 | 0.00 | 0.00 | 99 | 975.4 |
| 20260904044823 | 80 | 172 | 0.0 | 0.0 | 0.00 | 0.00 | 0.00 | 99 | 975.4 |
| 20260904044320 | 80 | 173 | 0.0 | 0.0 | 0.00 | 0.00 | 0.00 | 99 | 975.7 |
| 20260904043815 | 80 | 173 | 0.0 | 0.0 | 0.00 | 0.00 | 0.00 | 99 | 975.6 |
| 20260904043312 | 80 | 173 | 0.0 | 0.0 | 0.00 | 0.00 | 0.00 | 99 | 975.6 |
| 20260904042806 | 80 | 170 | 0.0 | 0.0 | 0.00 | 0.00 | 0.00 | 99 | 975.8 |